[[{"header":{"parameterUnit":"m.s-1","parameterCategory":2,"la1":30.2991,"la2":30.254,"lo1":-89.0895,"lo2":-89.0444,"dy":0.0017,"dx":0.0017,"nx":28,"ny":28,"refTime":"2023-10-29T09:00:00:Z","depth":"0","parameterNumber":2,"parameterNumberName":"U-component_of_CURRENTS"},"data":[0,0,0,0,0,0,0,0,0,0,0,0,0,0,0,0,0,0,0,0,0,0,0,0,0,0,0,0,0,0,0,0,0,0,0,0,0,0,0,0,0,0,0,0,0,0,0,0,0,0,0,0,0,0,0,0,0,0,0.4895,0.4896,0,0.4914,0.4914,0.4913,0.4848,0.4848,0.4847,0.4846,0.4791,0.479,0.479,0,0,0,0,0,0,0,0,0,0,0,0,0,0.4779,0.4781,0.4895,0.4896,0.4898,0.4915,0.4914,0.4912,0.4848,0.4848,0.4847,0.4846,0.4792,0.4791,0.479,0,0,0,0,0,0,0,0,0,0,0,0,0,0.4804,0.4781,0.4894,0.4878,0.4878,0.4915,0.4913,0.4912,0.4849,0.4848,0.4847,0.4846,0.4792,0.4791,0.4789,0.4802,0,0,0.4786,0.4785,0,0,0,0,0,0,0,0,0.4803,0.4806,0.4879,0.4879,0.4879,0.489,0.4854,0.4876,0.4849,0.4845,0.4846,0.4845,0.4827,0.4823,0.481,0.4799,0.4797,0.4786,0.4785,0.4784,0.4784,0,0,0,0,0,0,0,0.4801,0.4805,0.4888,0.4881,0.4881,0.4863,0.4864,0.4857,0.4829,0.4845,0.4844,0.4869,0.4825,0.4812,0.4809,0.4796,0.4786,0.4784,0.4784,0.4783,0.4828,0.483,0,0,0,0,0,0,0.4829,0.4804,0.4888,0.489,0.4853,0.4867,0.4868,0.4876,0.4831,0.4828,0.487,0.4866,0.4814,0.481,0.4806,0.4864,0.4784,0.4783,0.4782,0.4826,0.4828,0.483,0,0,0,0,0,0,0.4826,0.4836,0.4887,0.4859,0.4866,0.4872,0.4881,0.4878,0.4872,0.4853,0.4845,0.4871,0.4813,0.4808,0.4816,0.4859,0.4782,0.4781,0.4824,0.4826,0.4829,0.495,0,0,0,0,0,0,0.4822,0.4834,0.4839,0.4861,0.487,0.4911,0.4884,0.4879,0.4896,0.489,0.4852,0.4845,0.4812,0.4818,0.4815,0.4856,0.478,0.4821,0.4825,0.4828,0.4944,0.4957,0.4968,0,0,0,0,0,0.4818,0.4829,0.4838,0.4849,0.4879,0.4914,0.4914,0.4905,0.4897,0.4895,0.4882,0.4847,0.4838,0.4819,0.4814,0.4857,0.4819,0.4824,0.4828,0.4938,0.4954,0.4968,0,0,0,0,0,0,0.4757,0.4826,0.4836,0.486,0.4892,0.4908,0.4909,0.4919,0.4906,0.4895,0.4869,0.4862,0.4887,0.4856,0.4835,0.488,0.4825,0.4828,0.491,0.4925,0.4937,0.4929,0.4779,0,0,0,0,0,0.4759,0.48,0.4846,0.4868,0.488,0.4899,0.4912,0.4914,0.492,0.4912,0.4903,0.4892,0.4902,0.4899,0.489,0.4914,0.4919,0.4939,0.4952,0.4962,0.4953,0.502,0.5038,0.4845,0.4844,0.4844,0,0,0.475,0.4792,0.4815,0.4863,0.4875,0.4907,0.4898,0.4921,0.4953,0.491,0.4933,0.4932,0.4918,0.4946,0.4955,0.4925,0.5026,0.4968,0.4977,0.4962,0.5027,0.5045,0.5062,0.4847,0.4847,0.4846,0,0,0.4758,0.4778,0.4814,0.4844,0.4891,0.491,0.4927,0.4956,0.4962,0.4998,0.4987,0.5016,0.5015,0.5027,0.5031,0.5105,0.5091,0.5106,0.5159,0.5226,0.5243,0.5257,0.5318,0.5337,0.511,0.511,0.511,0,0.4739,0.4788,0.4826,0.4861,0.4894,0.492,0.4954,0.4974,0.5009,0.503,0.5014,0.5068,0.5056,0.5119,0.5142,0.5135,0.5165,0.5108,0.5244,0.5258,0.5271,0.5329,0.5348,0.5117,0.5116,0.5115,0.5115,0,0.4782,0.4811,0.4827,0.4895,0.4932,0.4959,0.5012,0.5041,0.5065,0.5097,0.516,0.5165,0.5196,0.5214,0.5197,0.5291,0.5284,0.5257,0.521,0.5298,0.5354,0.5372,0.5126,0.5123,0.5122,0.512,0,0,0.4729,0.4842,0.4834,0.4871,0.4948,0.4977,0.5044,0.5109,0.5151,0.5196,0.5263,0.5306,0.5318,0.5323,0.533,0.5384,0.5513,0.536,0.5361,0.5426,0.567,0.5552,0.556,0.552,0.5523,0.5525,0.5684,0,0.4734,0.481,0.4872,0.4931,0.4966,0.5026,0.509,0.5157,0.5206,0.5272,0.532,0.5375,0.536,0.5387,0.5448,0.5485,0.5561,0.5472,0.5568,0.5571,0.5459,0.5576,0.5359,0.5471,0.5701,0.5704,0.5706,0,0.4724,0.4785,0.4854,0.4955,0.4973,0.5026,0.512,0.5181,0.5286,0.5325,0.5404,0.5441,0.5539,0.5507,0.5647,0.5594,0.5644,0.5675,0.5682,0.5531,0.5484,0.5413,0.5494,0.54,0.5733,0.5731,0.5729,0,0.4652,0.4748,0.4809,0.4842,0.4973,0.5017,0.5084,0.5191,0.5256,0.5364,0.5429,0.5532,0.5609,0.5678,0.5763,0.5712,0.5917,0.5852,0.5806,0.5798,0.5606,0.5575,0.56,0.5971,0.597,0.597,0.597,0,0.4624,0.4659,0.4778,0.4809,0.4873,0.4979,0.5054,0.5132,0.5265,0.5347,0.5452,0.555,0.566,0.5789,0.582,0.5883,0.5979,0.5834,0.5837,0.5642,0.5614,0.5511,0.5469,0.5976,0.5975,0.5973,0.5972,0,0.4555,0.4627,0.4689,0.4812,0.4845,0.4889,0.5036,0.5095,0.5231,0.5349,0.5398,0.5608,0.5766,0.5885,0.6027,0.5963,0.5859,0.6031,0.5794,0.5761,0.5509,0.5481,0.5258,0.5104,0.5946,0.5944,0.5943,0,0.4546,0.4576,0.4664,0.4689,0.475,0.4831,0.4889,0.5044,0.5121,0.5373,0.5432,0.5666,0.5793,0.5976,0.5941,0.5991,0.5867,0.5778,0.5608,0.5483,0.5457,0.5232,0.5104,0.5432,0.5426,0.5421,0.5418,0,0.4531,0.4548,0.459,0.4632,0.4682,0.4749,0.4853,0.4911,0.5098,0.5213,0.5407,0.5545,0.5749,0.57,0.5773,0.576,0.5474,0.5676,0.5621,0.5111,0.4795,0.4652,0.5356,0.5376,0.538,0.5383,0.5386,0.5387,0.4488,0.449,0.452,0.4552,0.4607,0.4656,0.4646,0.4777,0.4876,0.4996,0.5244,0.5331,0.5437,0.5493,0.5467,0.5246,0.5209,0.5052,0.5054,0.4859,0.4598,0.5198,0.5161,0.5164,0.5166,0.5168,0.517,0,0.4388,0.4406,0.4448,0.4452,0.4454,0.453,0.4597,0.4548,0.4574,0.4768,0.4885,0.4928,0.492,0.4978,0.4857,0.4669,0.4427,0.4551,0.4224,0.4148,0.4773,0.464,0.4396,0.4396,0.4396,0.4396,0.4396,0.4396,0.4324,0.4298,0.4313,0.4273,0.4288,0.4201,0.4185,0.4159,0.4229,0.4211,0.4208,0.4333,0.4519,0.4578,0.4434,0.4321,0.4032,0.3796,0.3822,0.434,0.4386,0.4431,0.4297,0.3985,0.3985,0.2991,0.2984,0.2978]},{"header":{"parameterUnit":"m.s-1","parameterCategory":2,"la1":30.2991,"la2":30.254,"lo1":-89.0895,"lo2":-89.0444,"dy":0.0017,"dx":0.0017,"nx":28,"ny":28,"refTime":"2023-10-29T09:00:00:Z","depth":"0","parameterNumber":3,"parameterNumberName":"V-component_of_CURRENTS"},"data":[0,0,0,0,0,0,0,0,0,0,0,0,0,0,0,0,0,0,0,0,0,0,0,0,0,0,0,0,0,0,0,0,0,0,0,0,0,0,0,0,0,0,0,0,0,0,0,0,0,0,0,0,0,0,0,0,0,0,-0.0568,-0.0569,0,-0.0658,-0.0658,-0.0659,-0.0675,-0.0675,-0.0675,-0.0675,-0.0724,-0.0726,-0.0727,0,0,0,0,0,0,0,0,0,0,0,0,0,-0.0382,-0.0385,-0.0567,-0.0569,-0.0571,-0.0658,-0.0658,-0.0659,-0.0675,-0.0675,-0.0675,-0.0675,-0.0724,-0.0725,-0.0727,0,0,0,0,0,0,0,0,0,0,0,0,0,-0.0459,-0.0386,-0.0567,-0.0595,-0.0599,-0.0658,-0.0658,-0.0659,-0.0675,-0.0675,-0.0675,-0.0675,-0.0723,-0.0725,-0.0727,-0.0741,0,0,-0.0734,-0.0734,0,0,0,0,0,0,0,0,-0.0455,-0.0465,-0.0589,-0.0594,-0.0598,-0.0662,-0.0612,-0.0687,-0.0675,-0.0638,-0.0675,-0.0675,-0.0705,-0.0708,-0.0715,-0.0743,-0.0745,-0.0734,-0.0735,-0.0736,-0.0736,0,0,0,0,0,0,0,-0.0449,-0.0461,-0.0595,-0.0592,-0.0597,-0.0595,-0.0605,-0.0625,-0.0664,-0.0641,-0.0645,-0.0667,-0.0706,-0.0713,-0.0716,-0.0746,-0.0734,-0.0735,-0.0737,-0.0737,-0.0772,-0.0771,0,0,0,0,0,0,-0.0456,-0.0457,-0.0593,-0.0599,-0.0534,-0.0599,-0.061,-0.0635,-0.0665,-0.0672,-0.0667,-0.0668,-0.071,-0.0714,-0.0718,-0.0709,-0.0736,-0.0738,-0.0739,-0.0772,-0.0772,-0.0771,0,0,0,0,0,0,-0.0451,-0.0467,-0.0589,-0.0535,-0.0552,-0.0603,-0.0631,-0.0637,-0.0646,-0.0686,-0.0691,-0.0671,-0.071,-0.0715,-0.0726,-0.0712,-0.0739,-0.074,-0.0772,-0.0772,-0.0771,-0.0709,0,0,0,0,0,0,-0.0446,-0.0465,-0.0474,-0.0536,-0.0555,-0.0607,-0.0632,-0.0639,-0.0664,-0.0665,-0.0691,-0.0695,-0.071,-0.0723,-0.0728,-0.0716,-0.0742,-0.0773,-0.0772,-0.0772,-0.0712,-0.0707,-0.0702,0,0,0,0,0,-0.0439,-0.0451,-0.0474,-0.0491,-0.0571,-0.0607,-0.0615,-0.0646,-0.0664,-0.0655,-0.0677,-0.0695,-0.0723,-0.0724,-0.073,-0.0718,-0.0773,-0.0772,-0.0772,-0.0714,-0.0708,-0.0702,0,0,0,0,0,0,-0.036,-0.0457,-0.0483,-0.052,-0.0556,-0.0613,-0.0613,-0.0646,-0.0658,-0.0653,-0.0692,-0.0697,-0.0703,-0.0722,-0.0722,-0.0727,-0.0751,-0.0751,-0.0705,-0.0699,-0.0695,-0.0646,-0.0744,0,0,0,0,0,-0.0355,-0.0398,-0.0469,-0.0494,-0.0509,-0.0562,-0.0581,-0.0602,-0.0633,-0.0638,-0.0668,-0.069,-0.0705,-0.071,-0.0728,-0.073,-0.072,-0.0728,-0.0723,-0.0719,-0.0684,-0.0686,-0.0677,-0.0769,-0.0769,-0.0769,0,0,-0.0334,-0.0392,-0.0416,-0.0482,-0.0509,-0.0514,-0.0569,-0.0587,-0.0584,-0.0641,-0.064,-0.0678,-0.0705,-0.0704,-0.0708,-0.0716,-0.0683,-0.0718,-0.0714,-0.0681,-0.0684,-0.0675,-0.0667,-0.0768,-0.0769,-0.0769,0,0,-0.0298,-0.0358,-0.0369,-0.0397,-0.0445,-0.0475,-0.0481,-0.0535,-0.0545,-0.0559,-0.0598,-0.0624,-0.0654,-0.0668,-0.0678,-0.066,-0.0663,-0.0674,-0.0605,-0.0608,-0.0599,-0.0592,-0.0542,-0.053,-0.0667,-0.0667,-0.0667,0,-0.026,-0.0296,-0.0369,-0.0373,-0.039,-0.0454,-0.0441,-0.0458,-0.0509,-0.0504,-0.0542,-0.0585,-0.0628,-0.0615,-0.0614,-0.0647,-0.0629,-0.0624,-0.0599,-0.0592,-0.0585,-0.0536,-0.0524,-0.0664,-0.0664,-0.0664,-0.0665,0,-0.0227,-0.0249,-0.0249,-0.0285,-0.0304,-0.0305,-0.0348,-0.0351,-0.0386,-0.0408,-0.0415,-0.0481,-0.0498,-0.0532,-0.0568,-0.0545,-0.0539,-0.0597,-0.0607,-0.0572,-0.0522,-0.0511,-0.0659,-0.066,-0.0661,-0.0662,0,0,-0.0144,-0.0216,-0.0206,-0.0212,-0.0259,-0.0266,-0.025,-0.0251,-0.0221,-0.0279,-0.0246,-0.0314,-0.0355,-0.037,-0.0434,-0.0447,-0.0405,-0.0493,-0.0495,-0.0429,-0.0359,-0.0369,-0.0358,-0.0461,-0.0459,-0.0458,-0.0332,0,-0.0083,-0.0078,-0.013,-0.0104,-0.0104,-0.015,-0.0127,-0.0132,-0.0147,-0.0128,-0.0188,-0.019,-0.029,-0.0302,-0.033,-0.0391,-0.0376,-0.043,-0.0413,-0.041,-0.0415,-0.0347,-0.0331,-0.022,-0.0321,-0.032,-0.0318,0,-0.0018,-0.003,-0.0003,-0.0024,-0.002,-0.0005,0.0025,0.0036,0.0052,0.0047,0.0034,-0.0019,-0.004,-0.0145,-0.0185,-0.0212,-0.0261,-0.0312,-0.031,-0.0328,-0.0402,-0.0279,-0.0197,-0.0423,-0.0301,-0.0303,-0.0304,0,0.0072,0.0064,0.0085,0.0077,0.0054,0.0081,0.0085,0.0102,0.0146,0.0164,0.021,0.0152,0.0154,0.0064,-0.0041,-0.0109,-0.0064,-0.0181,-0.0217,-0.0216,-0.02,-0.0202,-0.0321,-0.0179,-0.0179,-0.018,-0.018,0,0.0138,0.0155,0.0134,0.0144,0.0208,0.0163,0.0248,0.0253,0.0302,0.0404,0.0309,0.0389,0.0203,0.0192,0.0059,-0.0008,0.0021,-0.0159,-0.0182,-0.0177,-0.0178,-0.0375,-0.0517,-0.0175,-0.0176,-0.0177,-0.0178,0,0.0202,0.0187,0.0218,0.0227,0.0243,0.0292,0.0352,0.0421,0.0453,0.0588,0.0607,0.0597,0.0596,0.0443,0.0333,0.0153,-0.0055,0.0033,0.0079,0.0058,-0.0263,-0.04,-0.049,-0.0597,-0.0009,-0.0008,-0.0008,0,0.0215,0.0237,0.0293,0.0342,0.0346,0.0412,0.0476,0.0505,0.0598,0.0744,0.0837,0.087,0.0963,0.0807,0.0505,0.0319,0.0068,0.014,-0.0026,-0.0237,-0.0406,-0.0516,-0.0609,0.0043,0.0043,0.0044,0.0045,0,0.0252,0.0288,0.033,0.0434,0.051,0.0597,0.0693,0.0795,0.0885,0.1042,0.1261,0.1353,0.1212,0.1029,0.0706,0.0517,-0.0049,0.0143,-0.0095,-0.0375,-0.0478,-0.0605,-0.0056,0.005,0.005,0.0049,0.0049,0.0049,0.0306,0.0359,0.0443,0.0541,0.0635,0.0779,0.0898,0.105,0.1267,0.1553,0.1602,0.1849,0.1475,0.1051,0.0719,0.0066,0.003,-0.0174,-0.0309,-0.0389,-0.0548,0.0038,0.0104,0.0104,0.0104,0.0103,0.0103,0,0.0391,0.0449,0.0537,0.068,0.0806,0.0837,0.1047,0.1215,0.1527,0.1845,0.2094,0.2135,0.1648,0.1085,0.0205,-0.0302,-0.0521,-0.0583,-0.0756,-0.0826,-0.0301,-0.0361,-0.037,-0.0369,-0.0369,-0.0369,-0.0369,-0.0368,0.045,0.0553,0.0595,0.0808,0.0912,0.1123,0.1268,0.1541,0.1816,0.227,0.2522,0.2667,0.2255,0.0637,-0.0496,-0.0776,-0.1145,-0.1206,-0.1402,-0.1089,-0.1062,-0.1037,-0.1129,-0.1298,-0.13,-0.1872,-0.1878,-0.1882]}],[{"header":{"parameterUnit":"m.s-1","parameterCategory":2,"la1":30.2991,"la2":30.254,"lo1":-89.0895,"lo2":-89.0444,"dy":0.0017,"dx":0.0017,"nx":28,"ny":28,"refTime":"2023-10-29T09:00:00:Z","depth":"2","parameterNumber":2,"parameterNumberName":"U-component_of_CURRENTS"},"data":[0,0,0,0,0,0,0,0,0,0,0,0,0,0,0,0,0,0,0,0,0,0,0,0,0,0,0,0,0,0,0,0,0,0,0,0,0,0,0,0,0,0,0,0,0,0,0,0,0,0,0,0,0,0,0,0,0,0,0.3233,0.3233,0,0.3281,0.3282,0.3283,0.3329,0.3329,0.3329,0.3329,0.3334,0.3334,0.3334,0,0,0,0,0,0,0,0,0,0,0,0,0,0.3211,0.3212,0.3233,0.3233,0.3233,0.3281,0.3282,0.3283,0.3329,0.3329,0.3329,0.3329,0.3334,0.3334,0.3334,0,0,0,0,0,0,0,0,0,0,0,0,0,0.3242,0.3212,0.3233,0.3257,0.3259,0.3281,0.3282,0.3284,0.3329,0.3329,0.3329,0.3329,0.3334,0.3334,0.3334,0.3335,0,0,0.3335,0.3335,0,0,0,0,0,0,0,0,0.324,0.3244,0.3253,0.3255,0.3258,0.3293,0.3276,0.3297,0.3329,0.331,0.3329,0.3329,0.3312,0.3314,0.3333,0.3336,0.3336,0.3335,0.3335,0.3335,0.3335,0,0,0,0,0,0,0,0.3238,0.3242,0.3259,0.3253,0.3256,0.3275,0.328,0.3281,0.3314,0.3311,0.3313,0.3308,0.3314,0.3333,0.3333,0.3336,0.3335,0.3335,0.3335,0.3335,0.3418,0.342,0,0,0,0,0,0,0.3217,0.324,0.3257,0.3259,0.3241,0.3275,0.3281,0.3287,0.3316,0.3318,0.3308,0.331,0.3333,0.3333,0.3333,0.3417,0.3335,0.3335,0.3335,0.3416,0.3418,0.3421,0,0,0,0,0,0,0.3217,0.3219,0.3255,0.3245,0.325,0.3274,0.3282,0.3288,0.3338,0.3312,0.3316,0.3353,0.3333,0.3333,0.3361,0.3414,0.3335,0.3335,0.3413,0.3417,0.3419,0.3533,0,0,0,0,0,0,0.3217,0.3219,0.323,0.3244,0.3249,0.329,0.3281,0.3289,0.3329,0.3333,0.3351,0.335,0.3333,0.3361,0.3361,0.3413,0.3336,0.3411,0.3415,0.3418,0.3526,0.3539,0.355,0,0,0,0,0,0.3216,0.3227,0.3231,0.3233,0.326,0.329,0.3297,0.3318,0.3332,0.3363,0.3373,0.3352,0.3386,0.3363,0.3363,0.3416,0.3409,0.3414,0.3418,0.3521,0.3537,0.355,0,0,0,0,0,0,0.3236,0.3233,0.3237,0.3251,0.3277,0.3296,0.332,0.334,0.3378,0.3376,0.3373,0.3373,0.3416,0.34,0.3374,0.3451,0.3397,0.3401,0.3475,0.3489,0.3501,0.3447,0.3336,0,0,0,0,0,0.324,0.3248,0.3256,0.3276,0.3286,0.3314,0.3333,0.3342,0.3364,0.3383,0.3395,0.3407,0.3432,0.3448,0.345,0.3492,0.3485,0.3528,0.354,0.355,0.3506,0.3591,0.3607,0.3436,0.3436,0.3436,0,0,0.3249,0.3253,0.3256,0.328,0.3302,0.3329,0.3329,0.3357,0.3385,0.3373,0.3426,0.3443,0.345,0.3497,0.3517,0.3495,0.3599,0.3556,0.3565,0.3514,0.3598,0.3615,0.3629,0.3439,0.3439,0.3438,0,0,0.3264,0.3283,0.3287,0.3313,0.3333,0.3352,0.3369,0.3398,0.3421,0.346,0.3471,0.3513,0.3546,0.3568,0.3583,0.366,0.3655,0.3684,0.371,0.3796,0.381,0.3823,0.3852,0.3866,0.3699,0.3699,0.3699,0,0.3264,0.3285,0.3299,0.3321,0.3341,0.3371,0.3392,0.3427,0.3463,0.3489,0.3481,0.3565,0.3571,0.3649,0.3671,0.3686,0.3718,0.3661,0.3813,0.3824,0.3835,0.3862,0.3876,0.3705,0.3704,0.3704,0.3703,0,0.328,0.3309,0.3324,0.3357,0.3389,0.3415,0.3446,0.3495,0.3524,0.355,0.362,0.3638,0.3691,0.3721,0.371,0.3809,0.3801,0.3818,0.3776,0.386,0.3882,0.3895,0.3713,0.3711,0.3709,0.3708,0,0,0.3242,0.3309,0.3321,0.3338,0.3405,0.3422,0.3495,0.3554,0.3601,0.3645,0.3716,0.3759,0.3778,0.3792,0.382,0.3872,0.3983,0.3875,0.3877,0.39,0.4151,0.4101,0.4109,0.4055,0.4058,0.406,0.4142,0,0.3247,0.3279,0.3326,0.3378,0.3394,0.3463,0.3537,0.3598,0.3643,0.3723,0.3769,0.3837,0.3811,0.3857,0.391,0.3966,0.4018,0.3955,0.4064,0.4064,0.401,0.4123,0.3801,0.3844,0.4154,0.4156,0.4157,0,0.3244,0.3265,0.3305,0.3379,0.3397,0.3448,0.3552,0.3612,0.3736,0.378,0.3858,0.3902,0.3993,0.3962,0.4081,0.4055,0.4091,0.4117,0.4123,0.4027,0.4037,0.3807,0.3854,0.4177,0.4176,0.4174,0.4173,0,0.3186,0.3252,0.3281,0.3306,0.3402,0.3452,0.3517,0.3632,0.3704,0.3826,0.3898,0.3994,0.4076,0.4136,0.4192,0.4163,0.4311,0.4295,0.4271,0.4267,0.3977,0.3944,0.4369,0.4369,0.4369,0.4368,0.4368,0,0.3166,0.3178,0.3259,0.3271,0.333,0.3412,0.35,0.3581,0.3732,0.3819,0.3925,0.4008,0.413,0.4234,0.4245,0.4303,0.4376,0.4267,0.4297,0.401,0.398,0.4242,0.4226,0.4371,0.4371,0.437,0.437,0,0.3095,0.315,0.3171,0.3266,0.3303,0.3342,0.3499,0.3561,0.3713,0.3837,0.3898,0.4078,0.4201,0.4299,0.4414,0.4386,0.4434,0.4436,0.4064,0.4048,0.4302,0.4291,0.4396,0.4395,0.4395,0.4394,0.4394,0,0.3047,0.3064,0.315,0.318,0.3225,0.3309,0.3382,0.3538,0.3606,0.385,0.39,0.4103,0.4189,0.4351,0.4357,0.44,0.4463,0.4111,0.3981,0.4292,0.4312,0.4302,0.4292,0.3641,0.3634,0.3629,0.3625,0,0.2967,0.3018,0.3056,0.3121,0.318,0.3228,0.333,0.3384,0.357,0.3694,0.3834,0.394,0.4125,0.4041,0.4145,0.411,0.4075,0.4003,0.4463,0.3698,0.3591,0.3607,0.362,0.3577,0.3581,0.3585,0.3587,0.3589,0.2912,0.2926,0.3006,0.3042,0.31,0.3103,0.3102,0.3206,0.3298,0.3414,0.3623,0.3678,0.3773,0.3764,0.3676,0.3618,0.3885,0.3691,0.3703,0.3721,0.3633,0.3534,0.3487,0.3491,0.3495,0.3498,0.3501,0,0.284,0.2864,0.2915,0.2935,0.2925,0.3005,0.3035,0.299,0.2995,0.316,0.3261,0.3098,0.3098,0.3189,0.3044,0.3067,0.2979,0.2926,0.2773,0.2827,0.2873,0.2735,0.2354,0.235,0.2346,0.2342,0,0,0.2796,0.2788,0.2797,0.2729,0.2761,0.267,0.2642,0.2607,0.2651,0.263,0.2672,0.2947,0.311,0.2687,0.2653,0.247,0.2606,0.237,0.3304,0.3178,0.3218,0.335,0.3205,0,0,0,0,0]},{"header":{"parameterUnit":"m.s-1","parameterCategory":2,"la1":30.2991,"la2":30.254,"lo1":-89.0895,"lo2":-89.0444,"dy":0.0017,"dx":0.0017,"nx":28,"ny":28,"refTime":"2023-10-29T09:00:00:Z","depth":"2","parameterNumber":3,"parameterNumberName":"V-component_of_CURRENTS"},"data":[0,0,0,0,0,0,0,0,0,0,0,0,0,0,0,0,0,0,0,0,0,0,0,0,0,0,0,0,0,0,0,0,0,0,0,0,0,0,0,0,0,0,0,0,0,0,0,0,0,0,0,0,0,0,0,0,0,0,0.0207,0.0207,0,0.0156,0.0155,0.0154,0.0095,0.0095,0.0095,0.0094,0.0026,0.0024,0.0023,0,0,0,0,0,0,0,0,0,0,0,0,0,0.0236,0.0235,0.0207,0.0207,0.0206,0.0156,0.0155,0.0154,0.0095,0.0095,0.0094,0.0094,0.0026,0.0024,0.0023,0,0,0,0,0,0,0,0,0,0,0,0,0,0.0203,0.0235,0.0207,0.0175,0.0172,0.0156,0.0155,0.0153,0.0096,0.0095,0.0094,0.0094,0.0027,0.0025,0.0022,0.0021,0,0,0.0016,0.0015,0,0,0,0,0,0,0,0,0.0205,0.0202,0.018,0.0177,0.0174,0.0136,0.014,0.011,0.0096,0.0119,0.0094,0.0093,0.0065,0.0059,0.0044,0.0018,0.0015,0.0016,0.0014,0.0013,0.0013,0,0,0,0,0,0,0,0.0208,0.0203,0.0181,0.018,0.0176,0.0158,0.0152,0.0134,0.0092,0.0117,0.0114,0.0117,0.0062,0.0046,0.0042,0.0014,0.0016,0.0014,0.0012,0.0012,-0.0024,-0.0024,0,0,0,0,0,0,0.0226,0.0206,0.0183,0.018,0.0194,0.0158,0.0152,0.0145,0.0092,0.0085,0.0117,0.0114,0.005,0.0045,0.0039,0.0043,0.0013,0.0011,0.001,-0.0024,-0.0024,-0.0024,0,0,0,0,0,0,0.0226,0.0224,0.0185,0.0197,0.0191,0.0159,0.0151,0.0144,0.0127,0.0094,0.0085,0.0108,0.005,0.0043,0.0028,0.0039,0.001,0.0008,-0.0025,-0.0024,-0.0024,0.0044,0,0,0,0,0,0,0.0227,0.0224,0.0221,0.0198,0.0191,0.0183,0.0152,0.0144,0.0132,0.0127,0.0083,0.0076,0.0049,0.0032,0.0026,0.0036,0.0007,-0.0025,-0.0025,-0.0024,0.0042,0.0047,0.0052,0,0,0,0,0,0.0228,0.0236,0.0221,0.0218,0.0189,0.0184,0.0178,0.015,0.0133,0.013,0.0102,0.0077,0.0032,0.0031,0.0024,0.0033,-0.0026,-0.0025,-0.0024,0.0039,0.0046,0.0052,0,0,0,0,0,0,0.0247,0.023,0.0213,0.0214,0.0202,0.0176,0.0174,0.0155,0.0129,0.0128,0.0084,0.0076,0.0065,0.0041,0.0041,0.0024,-0.0002,-0.0002,0.0048,0.0054,0.0059,0.0094,0.0005,0,0,0,0,0,0.0251,0.0252,0.0231,0.0233,0.0227,0.0199,0.0192,0.0181,0.016,0.0147,0.0113,0.0084,0.0063,0.0053,0.0029,0.0025,-0.0004,0.0024,0.003,0.0034,0.0057,0.0013,0.0017,-0.0021,-0.0021,-0.0021,0,0,0.0265,0.0253,0.0255,0.0238,0.0222,0.0232,0.0192,0.0195,0.0205,0.0146,0.0138,0.01,0.0065,0.0057,0.005,0.0039,0.0028,0.0035,0.0039,0.006,0.0014,0.0018,0.0021,-0.002,-0.002,-0.0021,0,0,0.0299,0.0275,0.0287,0.0281,0.0273,0.0261,0.0265,0.0241,0.0227,0.0222,0.018,0.0154,0.0117,0.0096,0.0082,0.0102,0.0054,0.0086,0.0144,0.0101,0.0104,0.0106,0.0068,0.0067,0.0091,0.0091,0.0092,0,0.0314,0.0325,0.0292,0.0304,0.0312,0.0279,0.0304,0.029,0.0265,0.0263,0.0232,0.0178,0.0141,0.014,0.0143,0.0116,0.0083,0.0124,0.0108,0.011,0.0111,0.0072,0.0069,0.0095,0.0094,0.0094,0.0094,0,0.0362,0.0368,0.0378,0.0381,0.0381,0.0402,0.0386,0.0382,0.036,0.0343,0.0326,0.0268,0.0239,0.0215,0.0187,0.0181,0.0151,0.0117,0.0096,0.0119,0.0076,0.0072,0.01,0.0098,0.0097,0.0097,0,0,0.0406,0.0413,0.0416,0.0434,0.0429,0.0442,0.0457,0.0466,0.049,0.044,0.0454,0.0398,0.0357,0.0338,0.0286,0.025,0.0218,0.0195,0.0191,0.0166,0.0124,0.0095,0.0088,0.0175,0.0175,0.0175,0.0089,0,0.0456,0.0505,0.049,0.0542,0.0567,0.0545,0.0567,0.057,0.0555,0.0557,0.0493,0.0483,0.0407,0.0394,0.0344,0.0256,0.0212,0.0245,0.0101,0.0097,0.0074,0.0084,0.0113,0.0038,0.0085,0.0084,0.0083,0,0.0505,0.0536,0.0594,0.0631,0.064,0.0665,0.0701,0.0722,0.0713,0.0699,0.0666,0.0609,0.0558,0.0484,0.0345,0.0367,0.026,0.018,0.0174,0.0127,0.0061,0.0022,0.0028,0.0076,0.0077,0.0077,0.0078,0,0.0562,0.0606,0.0661,0.0674,0.0709,0.0732,0.0757,0.0765,0.0806,0.0793,0.0815,0.072,0.0695,0.0546,0.0376,0.0358,0.0218,0.0166,0.0038,0.0034,0.0024,0.0019,0.0068,0.0068,0.0068,0.0068,0.0068,0,0.0618,0.0663,0.0695,0.0728,0.0808,0.0802,0.0888,0.0893,0.0925,0.0998,0.0897,0.0922,0.071,0.06,0.0419,0.0226,0.0243,0.0061,0.0014,0.0046,0.0046,0.0053,0.0052,0.0065,0.0066,0.0066,0.0067,0,0.0666,0.0685,0.0758,0.0812,0.0835,0.0896,0.0986,0.1054,0.1066,0.1156,0.1159,0.1077,0.0936,0.0712,0.0478,0.0303,0.0105,0.0028,0.0084,0.0046,-0.0063,-0.006,-0.0122,-0.0124,-0.0125,-0.0126,-0.0127,0,0.0702,0.0744,0.0827,0.0884,0.0911,0.1004,0.1078,0.1121,0.1202,0.1261,0.1313,0.1206,0.1156,0.0798,0.0466,0.0146,0.0102,-0.0045,-0.0078,-0.0042,-0.0081,-0.0075,-0.0069,-0.0073,-0.0073,-0.0074,-0.0074,0,0.0776,0.0797,0.0853,0.0974,0.1058,0.1174,0.128,0.1364,0.1436,0.1505,0.1565,0.1525,0.1202,0.0879,0.0438,0.022,0.0004,-0.0063,-0.0037,-0.0026,-0.0002,-0.0038,-0.0033,-0.0077,-0.0077,-0.0077,-0.0077,-0.0076,0.0831,0.0884,0.0958,0.1072,0.1181,0.1326,0.1431,0.1547,0.1683,0.1783,0.1742,0.1685,0.133,0.0763,0.0379,-0.0027,-0.0006,-0.0155,-0.0151,-0.0147,-0.0123,-0.0102,-0.0192,-0.0192,-0.0192,-0.0193,-0.0193,0,0.0902,0.0957,0.106,0.1194,0.1322,0.137,0.1556,0.1655,0.1815,0.1891,0.1924,0.1587,0.1231,0.0814,0.0214,-0.0137,-0.0159,-0.0253,-0.0202,-0.0196,-0.0191,-0.0167,-0.0249,-0.025,-0.0252,-0.0253,0,0,0.0937,0.1032,0.1076,0.1281,0.1387,0.1556,0.1666,0.1804,0.1895,0.1956,0.1921,0.1847,0.1356,0.0912,0.0435,0.0087,0.0026,0.0019,0.0104,0.0228,0.0237,-0.0093,-0.0044,0,0,0,0,0]}],[{"header":{"parameterUnit":"m.s-1","parameterCategory":2,"la1":30.2991,"la2":30.254,"lo1":-89.0895,"lo2":-89.0444,"dy":0.0017,"dx":0.0017,"nx":28,"ny":28,"refTime":"2023-10-29T09:00:00:Z","depth":"4","parameterNumber":2,"parameterNumberName":"U-component_of_CURRENTS"},"data":[0,0,0,0,0,0,0,0,0,0,0,0,0,0,0,0,0,0,0,0,0,0,0,0,0,0,0,0,0,0,0,0,0,0,0,0,0,0,0,0,0,0,0,0,0,0,0,0,0,0,0,0,0,0,0,0,0,0,0.1889,0.1889,0,0.1975,0.1975,0.1976,0.2056,0.2057,0.2058,0.2059,0.2162,0.2164,0.2165,0,0,0,0,0,0,0,0,0,0,0,0,0,0.1801,0.1802,0.1888,0.189,0.1891,0.1974,0.1976,0.1977,0.2056,0.2057,0.2059,0.206,0.2161,0.2163,0.2165,0,0,0,0,0,0,0,0,0,0,0,0,0,0.1858,0.1802,0.1888,0.1941,0.1946,0.1974,0.1976,0.1977,0.2056,0.2057,0.2059,0.206,0.2161,0.2163,0.2166,0.2152,0,0,0.2174,0.2175,0,0,0,0,0,0,0,0,0.1854,0.1861,0.1932,0.1937,0.1943,0.2006,0.1982,0.2036,0.2056,0.2014,0.2059,0.2061,0.211,0.2117,0.213,0.2157,0.2161,0.2174,0.2176,0.2177,0.2178,0,0,0,0,0,0,0,0.185,0.1858,0.1922,0.1933,0.194,0.1962,0.1972,0.1993,0.2053,0.2018,0.2024,0.2033,0.2114,0.2127,0.2133,0.2163,0.2174,0.2177,0.2178,0.2179,0.2325,0.2328,0,0,0,0,0,0,0.1838,0.1854,0.192,0.1925,0.1902,0.1963,0.1974,0.1984,0.2052,0.2064,0.2032,0.2037,0.2121,0.2129,0.2136,0.2245,0.2177,0.2179,0.2181,0.2323,0.2326,0.2328,0,0,0,0,0,0,0.1836,0.1843,0.1916,0.1891,0.1902,0.1963,0.1974,0.1985,0.2042,0.2063,0.2075,0.2082,0.2123,0.2133,0.2199,0.2245,0.2181,0.2183,0.2321,0.2324,0.2327,0.2384,0,0,0,0,0,0,0.1833,0.1842,0.1866,0.1891,0.1903,0.1957,0.1973,0.1986,0.2043,0.2051,0.2109,0.2118,0.2125,0.2195,0.2202,0.2247,0.2185,0.2318,0.2322,0.2326,0.2379,0.2389,0.2397,0,0,0,0,0,0.183,0.1846,0.1866,0.1875,0.1927,0.1958,0.1968,0.2015,0.2044,0.2072,0.212,0.2118,0.2227,0.2199,0.2206,0.2254,0.2316,0.2321,0.2326,0.2375,0.2387,0.2397,0,0,0,0,0,0,0.1824,0.1856,0.1879,0.1907,0.1944,0.1973,0.201,0.2037,0.2096,0.212,0.2142,0.2154,0.2231,0.2235,0.2203,0.231,0.2273,0.228,0.2308,0.232,0.2328,0.2328,0.2187,0,0,0,0,0,0.1831,0.1855,0.1887,0.1916,0.194,0.1984,0.2012,0.2042,0.2085,0.2116,0.2158,0.2206,0.2249,0.2279,0.2314,0.2366,0.238,0.2405,0.2414,0.2421,0.2428,0.2489,0.2504,0.2345,0.2345,0.2345,0,0,0.1838,0.1859,0.1876,0.1918,0.1957,0.1993,0.2007,0.2059,0.21,0.2115,0.2203,0.2241,0.2272,0.2338,0.2372,0.2352,0.2476,0.2428,0.2433,0.2436,0.2496,0.2511,0.2525,0.2349,0.2348,0.2348,0,0,0.185,0.1888,0.1912,0.1946,0.2003,0.2026,0.205,0.2106,0.2151,0.2221,0.2251,0.2316,0.2383,0.2414,0.2435,0.2513,0.2523,0.2536,0.258,0.2641,0.2654,0.2666,0.2708,0.2723,0.2539,0.2539,0.2539,0,0.1864,0.1893,0.1926,0.1961,0.1997,0.2046,0.2085,0.2129,0.2203,0.2249,0.2263,0.2392,0.2416,0.2494,0.2527,0.2533,0.2568,0.2533,0.2651,0.2663,0.2674,0.2715,0.2731,0.2542,0.2542,0.2542,0.2541,0,0.188,0.1926,0.1949,0.2007,0.2049,0.2092,0.2149,0.2213,0.2274,0.2319,0.243,0.2471,0.255,0.2569,0.2573,0.267,0.267,0.2655,0.2619,0.2694,0.2732,0.2747,0.2547,0.2546,0.2545,0.2544,0,0,0.1862,0.1941,0.1959,0.1995,0.208,0.2108,0.2195,0.2276,0.2344,0.2428,0.2519,0.2599,0.2642,0.2669,0.2691,0.2738,0.2842,0.2739,0.2741,0.2772,0.2982,0.2799,0.2798,0.2859,0.2862,0.2864,0.2979,0,0.1875,0.1929,0.1977,0.2051,0.2087,0.2168,0.2237,0.2323,0.2408,0.2507,0.2579,0.2672,0.2673,0.2727,0.278,0.2835,0.2887,0.2813,0.2913,0.2916,0.2736,0.2811,0.2874,0.299,0.2994,0.2996,0.2998,0,0.1877,0.1914,0.1977,0.2071,0.21,0.2159,0.2288,0.2358,0.2501,0.2573,0.2686,0.2749,0.286,0.2835,0.2974,0.2936,0.2972,0.2995,0.2999,0.2816,0.276,0.2901,0.3026,0.3024,0.3022,0.302,0.3018,0,0.1824,0.1919,0.1966,0.1999,0.2108,0.2177,0.2254,0.2392,0.2473,0.2634,0.2718,0.2843,0.2935,0.3004,0.3076,0.3047,0.3206,0.3164,0.3029,0.3016,0.3121,0.3107,0.3252,0.3252,0.3252,0.3252,0.3251,0,0.1795,0.1841,0.1952,0.1979,0.2059,0.2156,0.2272,0.2368,0.2523,0.2619,0.2759,0.2845,0.2989,0.3094,0.3124,0.313,0.3255,0.3048,0.3037,0.3143,0.313,0.3132,0.3116,0.3256,0.3255,0.3254,0.3253,0,0.1717,0.1792,0.1854,0.1982,0.2036,0.2097,0.228,0.2351,0.2517,0.2651,0.2714,0.29,0.3025,0.3137,0.3256,0.3179,0.3202,0.3171,0.3295,0.3287,0.2959,0.2946,0.3017,0.3012,0.3007,0.3003,0.3,0,0.1665,0.169,0.184,0.1889,0.1957,0.2075,0.2153,0.2331,0.2406,0.2653,0.2693,0.2893,0.2995,0.3022,0.314,0.3189,0.3152,0.3137,0.3019,0.2954,0.2938,0.2931,0.2925,0.2993,0.2991,0.299,0.2989,0,0.1566,0.1644,0.1701,0.1807,0.19,0.1977,0.2106,0.2149,0.2345,0.2527,0.2615,0.2692,0.2827,0.2906,0.2978,0.2999,0.3126,0.3088,0.3096,0.2984,0.2926,0.2912,0.2911,0.2973,0.2975,0.2977,0.2978,0,0.1505,0.1521,0.1623,0.1701,0.1802,0.1834,0.1926,0.2016,0.2116,0.2378,0.2404,0.2611,0.2793,0.2811,0.2873,0.2888,0.2832,0.272,0.2746,0.2765,0.2629,0.2514,0.2436,0,0,0,0,0,0.1428,0.1439,0.1505,0.1574,0.1665,0.1726,0.1865,0.1958,0.2156,0.2155,0.2273,0.2382,0.2482,0.2587,0.2554,0.2763,0.2843,0.271,0.2725,0.2884,0.2903,0.2765,0,0,0,0,0,0,0.1379,0.1433,0.1457,0.1448,0.1472,0.1549,0.1629,0.1767,0.1776,0.1993,0.2061,0.2233,0.2367,0.2481,0.2507,0.2541,0.2499,0.2846,0.2839,0.2874,0.2891,0.2905,0.277,0,0,0,0,0]},{"header":{"parameterUnit":"m.s-1","parameterCategory":2,"la1":30.2991,"la2":30.254,"lo1":-89.0895,"lo2":-89.0444,"dy":0.0017,"dx":0.0017,"nx":28,"ny":28,"refTime":"2023-10-29T09:00:00:Z","depth":"4","parameterNumber":3,"parameterNumberName":"V-component_of_CURRENTS"},"data":[0,0,0,0,0,0,0,0,0,0,0,0,0,0,0,0,0,0,0,0,0,0,0,0,0,0,0,0,0,0,0,0,0,0,0,0,0,0,0,0,0,0,0,0,0,0,0,0,0,0,0,0,0,0,0,0,0,0,0.0253,0.0253,0,0.0228,0.0228,0.0227,0.0199,0.0199,0.0199,0.0199,0.0153,0.0152,0.0151,0,0,0,0,0,0,0,0,0,0,0,0,0,0.0256,0.0256,0.0253,0.0253,0.0253,0.0228,0.0228,0.0227,0.0199,0.0199,0.0199,0.0198,0.0153,0.0152,0.0151,0,0,0,0,0,0,0,0,0,0,0,0,0,0.0243,0.0256,0.0253,0.0238,0.0236,0.0228,0.0227,0.0227,0.0199,0.0199,0.0199,0.0198,0.0154,0.0152,0.0151,0.0146,0,0,0.0146,0.0145,0,0,0,0,0,0,0,0,0.0243,0.0242,0.024,0.0239,0.0237,0.0219,0.0212,0.02,0.0199,0.021,0.0199,0.0198,0.0175,0.0172,0.0164,0.0144,0.0142,0.0146,0.0145,0.0144,0.0144,0,0,0,0,0,0,0,0.0244,0.0243,0.024,0.024,0.0238,0.0226,0.0223,0.0209,0.0192,0.0209,0.0208,0.021,0.0174,0.0166,0.0163,0.0141,0.0146,0.0144,0.0143,0.0143,0.012,0.012,0,0,0,0,0,0,0.0254,0.0244,0.0241,0.024,0.0243,0.0226,0.0223,0.0223,0.0193,0.0189,0.021,0.0208,0.0168,0.0165,0.0161,0.0171,0.0144,0.0143,0.0142,0.0119,0.012,0.012,0,0,0,0,0,0,0.0254,0.0254,0.0242,0.0244,0.0241,0.0227,0.0226,0.0222,0.022,0.0194,0.0189,0.0212,0.0168,0.0163,0.0156,0.0168,0.0142,0.014,0.0119,0.0119,0.012,0.0179,0,0,0,0,0,0,0.0254,0.0254,0.0257,0.0244,0.0242,0.0244,0.0226,0.0222,0.0222,0.022,0.0194,0.0189,0.0168,0.0159,0.0155,0.0165,0.0139,0.0118,0.0119,0.012,0.0177,0.0182,0.0186,0,0,0,0,0,0.0255,0.0264,0.0257,0.0257,0.0246,0.0245,0.0242,0.0228,0.0223,0.0224,0.0208,0.019,0.016,0.0158,0.0153,0.0164,0.0118,0.0119,0.012,0.0175,0.0181,0.0186,0,0,0,0,0,0,0.0267,0.0262,0.0254,0.0261,0.0256,0.0241,0.0244,0.0236,0.0224,0.0225,0.0196,0.019,0.0187,0.0167,0.0166,0.0157,0.0135,0.0135,0.0179,0.0184,0.0188,0.0201,0.0138,0,0,0,0,0,0.0272,0.028,0.0268,0.0276,0.0273,0.026,0.0258,0.0253,0.0242,0.0237,0.0217,0.0198,0.0185,0.0179,0.0161,0.016,0.0125,0.0162,0.0167,0.0171,0.0177,0.0131,0.0132,0.0122,0.0122,0.0122,0,0,0.0282,0.028,0.0284,0.028,0.0273,0.0282,0.0257,0.0264,0.0273,0.0234,0.0237,0.0213,0.0187,0.0185,0.0181,0.0171,0.0154,0.0172,0.0175,0.018,0.0132,0.0132,0.0133,0.0123,0.0123,0.0123,0,0,0.0306,0.0299,0.0312,0.0311,0.031,0.0304,0.031,0.0298,0.0293,0.0294,0.0268,0.0251,0.0232,0.0213,0.0203,0.0221,0.0178,0.0217,0.0254,0.0208,0.0209,0.0209,0.0161,0.0156,0.0221,0.0222,0.0222,0,0.0317,0.0332,0.0316,0.0328,0.0337,0.0319,0.0338,0.0332,0.0321,0.032,0.0304,0.0271,0.0245,0.0241,0.0248,0.0232,0.0199,0.0238,0.0214,0.0214,0.0212,0.0164,0.0158,0.0224,0.0224,0.0224,0.0224,0,0.035,0.0363,0.0372,0.0383,0.0387,0.0404,0.0396,0.0399,0.0391,0.038,0.0369,0.0329,0.031,0.0297,0.0281,0.0267,0.0243,0.0224,0.0203,0.0217,0.0165,0.0157,0.0229,0.0228,0.0227,0.0226,0,0,0.0371,0.0393,0.0397,0.0416,0.0422,0.0434,0.045,0.0457,0.0474,0.0444,0.0452,0.0416,0.0388,0.0373,0.0341,0.0304,0.0263,0.027,0.0266,0.0226,0.0162,0.0144,0.0133,0.0241,0.024,0.024,0.0127,0,0.0403,0.0447,0.0446,0.0492,0.0514,0.0508,0.0528,0.0532,0.0522,0.0521,0.0473,0.0466,0.0419,0.0414,0.0368,0.0294,0.0247,0.0295,0.0151,0.0146,0.0132,0.0126,0.0237,0.0121,0.012,0.0118,0.0117,0,0.0433,0.0463,0.0514,0.0557,0.0565,0.0591,0.0623,0.0642,0.063,0.062,0.0592,0.0549,0.05,0.0455,0.0324,0.0358,0.0268,0.02,0.0193,0.0153,0.0115,0.0103,0.0103,0.0104,0.0105,0.0106,0.0107,0,0.0462,0.0509,0.0559,0.0573,0.0614,0.064,0.0667,0.0673,0.0703,0.0685,0.0694,0.0613,0.0587,0.0463,0.0322,0.0322,0.0167,0.0145,0.0038,0.0035,0.0058,0.006,0.0043,0.0043,0.0043,0.0043,0.0044,0,0.0495,0.0535,0.0581,0.0611,0.0681,0.0689,0.0758,0.0765,0.0788,0.0828,0.0754,0.0752,0.0588,0.0482,0.0339,0.0168,0.0172,0.0042,0.0005,0.0085,0.0091,0.0052,0.0055,0.0039,0.004,0.0041,0.0042,0,0.0516,0.0545,0.061,0.0671,0.0698,0.0751,0.0837,0.0882,0.0892,0.094,0.0941,0.0855,0.0712,0.0532,0.0325,0.0201,0.0032,-0.0034,0.0066,0.0037,-0.0078,-0.0071,-0.0166,-0.0167,-0.0168,-0.017,-0.017,0,0.0532,0.0569,0.0659,0.0711,0.0745,0.0829,0.0891,0.0933,0.0984,0.1002,0.1024,0.0909,0.0825,0.0525,0.0323,0.0035,-0.0006,-0.0101,-0.0093,-0.0073,-0.0099,-0.009,-0.0082,-0.0173,-0.0173,-0.0173,-0.0174,0,0.0566,0.0599,0.0653,0.076,0.0837,0.0936,0.1023,0.1067,0.1116,0.1125,0.1092,0.094,0.0773,0.0529,0.0305,0.01,-0.0042,-0.0116,-0.0114,-0.0107,-0.0083,-0.0105,-0.0095,-0.0178,-0.0177,-0.0177,-0.0177,0,0.0592,0.0634,0.0708,0.0803,0.0908,0.1008,0.1056,0.1113,0.1162,0.117,0.1153,0.0975,0.0872,0.0562,0.0357,0.015,0.0093,0.0022,0.0015,0.0018,0.0101,0.0161,0.0109,0,0,0,0,0,0.0614,0.0662,0.0748,0.085,0.0956,0.1021,0.1131,0.1169,0.1209,0.1195,0.118,0.1023,0.0723,0.0594,0.0384,0.0314,0.0045,0.0057,-0.0042,-0.0203,-0.0198,-0.0134,0,0,0,0,0,0,0.0624,0.0702,0.0742,0.0875,0.0951,0.1072,0.1145,0.1176,0.1171,0.1176,0.1023,0.0955,0.0663,0.0839,0.0373,0.0311,0.0216,-0.0079,-0.0084,-0.0206,-0.0202,-0.0197,-0.0129,0,0,0,0,0]}]]